Terminal Aerodrome Forecast
Issued by NWS

Home | Current Version | Previous Version | Graphics & Text | Print | Product List | Glossary Off
Versions: 1 2 3 4 5 6 7 8 9 10 11 12 13 14 15 16 17 18 19 20 21 22 23 24 25 26 27 28 29 30 31 32 33

000
FTUS43 KDDC 282000 AAB
TAFGCK
TAF AMD
KGCK 282041Z 2821/2918 22012KT P6SM BKN100
     FM290300 VRB05KT P6SM BKN100
     FM291500 19015G25KT P6SM VCSH BKN080=

USA.gov is the U.S. government's official web portal to all federal, state and local government web resources and services.